Home > Weather > Kings County > Past weeks

Flag for Canada Past Weather in Kings County, Nova Scotia, Canada — Yesterday and Last 2 Weeks

Now
46 °F

Cool.


Feels Like: 42 °F
Forecast: 44 / 58 °F
Wind: 8 mph from North

Location: McNabs Island - AUT

Current Time: May 27, 2016 at 5:37:49 AM

Latest Report: May 27, 2016 at 5:00 AM


Visibility: N/A

Pressure: 30.20 "Hg

Humidity: 85%

Dew Point: 42 °F

Location of Kings CountyLocation

Past Weather in Kings County — Graph

°F

Kings County Temperature Yesterday

Maximum temperature yesterday: 70 °F (at 3:00 PM)
Minimum temperature yesterday: 46 °F (at 1:00 AM)
Average temperature yesterday: 55 °F

High & Low Weather Summary for the Past Weeks

 TemperatureHumidityPressure
High76 °F (May 21, 11:00 AM)100% (May 15, 4:00 AM)30.22 "Hg (May 15, 4:00 AM)
Low38 °F (May 13, 6:00 AM)26% (May 12, 2:00 PM)29.49 "Hg (May 15, 7:00 PM)
Average51 °F78%29.92 "Hg
* Reported May 12 4:00 AM — May 27 4:00 AM, Kings County, Weather by CustomWeather, © 2016

Note: Actual official high and low records may vary slightly from our data, if they occured in-between our weather recording intervals... More about our weather records

Advertising

Kings County Weather History for the Previous 24 Hours

Scroll right to see more
 ConditionsComfort  
Time TempWeatherWind HumidityBarometerVisibility
4:00 AM
Fri, May 27
46 °FCool.9 mph87%30.20 "HgN/A
3:00 AM46 °FCool.5 mph87%30.22 "HgN/A
2:00 AM46 °FCool.8 mph86%30.19 "HgN/A
1:00 AM47 °FCool.8 mph85%30.18 "HgN/A
12:00 AM47 °FCool.10 mph83%30.16 "HgN/A
11:00 PM
Thu, May 26
48 °FCool.10 mph83%30.16 "HgN/A
10:00 PM49 °FCool.8 mph82%30.14 "HgN/A
9:00 PM51 °FCool.12 mph79%30.11 "HgN/A
8:00 PM54 °FCool.12 mph79%30.09 "HgN/A
7:00 PM61 °FCool.12 mph69%30.06 "HgN/A
6:00 PM64 °FMild.12 mph65%30.04 "HgN/A
5:00 PM65 °FMild.10 mph69%30.02 "HgN/A
4:00 PM69 °FMild.9 mph64%29.99 "HgN/A
3:00 PM70 °FMild.9 mph63%29.96 "HgN/A
2:00 PM67 °FMild.7 mph65%29.96 "HgN/A
1:00 PM69 °FMild.5 mph62%29.95 "HgN/A
12:00 PM65 °FMild.3 mph75%29.95 "HgN/A
11:00 AM53 °FCool.6 mph93%29.95 "HgN/A
10:00 AM50 °FCool.5 mph97%29.95 "HgN/A
9:00 AM50 °FCool.3 mph97%29.96 "HgN/A
8:00 AM52 °FCool.1 mph91%29.94 "HgN/A
7:00 AM50 °FCool.2 mph97%29.92 "HgN/A
6:00 AM51 °FCool.3 mph96%29.92 "HgN/A
5:00 AM49 °FCool.No wind95%29.90 "HgN/A
Weather by CustomWeather, © 2016

See weather overviewHow to use our weather pages